Regional Weather Roundup
Issued by NWS

Home | Current Version | Previous Version | Graphics & Text | Print | Product List | Glossary On
Versions: 1 2 3 4 5 6 7 8 9 10 11 12 13 14 15 16 17 18 19 20 21 22 23 24 25 26 27 28
000
ASUS45 KTFX 282110
RWRMT
MONTANA REGIONAL WEATHER ROUNDUP
NATIONAL WEATHER SERVICE GREAT FALLS MT
300 PM MDT THU APR 28 2016

NOTE: "FAIR" INDICATES FEW OR NO CLOUDS BELOW 12000 FEET WITH NO
SIGNIFICANT WEATHER AND/OR OBSTRUCTIONS TO VISIBILITY.

MTZ001>007-043-282200-
WEST OF THE DIVIDE

CITY           SKY/WX    TMP DP  RH WIND       PRES   REMARKS
KALISPELL      PTSUNNY   52  28  39 E12       30.03S
MISSOULA       CLOUDY    50  29  44 VRB5G17   30.01S
BUTTE          LGT SNOW  35  31  85 W3        29.98S FOG
MULLAN PASS    CLOUDY    39  27  62 CALM      29.98F
ANACONDA         N/A     37  30  75 N14G24    29.99R WCI  29
DEER LODGE       N/A     41  28  60 N12G17    30.02S
EUREKA           N/A     57  30  35 SW3       30.01F
HAMILTON         N/A     48  27  43 N10G21    29.96S
LIBBY            N/A     54  30  40 E5        30.01S
$$

MTZ008-052>055-282200-
SOUTHWEST MONTANA

CITY           SKY/WX    TMP DP  RH WIND       PRES   REMARKS
BOZEMAN        PTSUNNY   45  26  47 SW5       29.99F
DILLON         CLOUDY    45  24  43 NE29G37   29.93R
ENNIS          CLOUDY    41  27  56 N20G26    29.98S
THREE FORKS      N/A     40  39  96 SW5       30.01S
$$

MTZ009-010-012-014-046-048-049-054-282200-
EAST SLOPES AND CENTRAL MONTANA

CITY           SKY/WX    TMP DP  RH WIND       PRES   REMARKS
CUT BANK       CLOUDY    43  32  65 E9        30.12F
GREAT FALLS    LGT RAIN  42  35  76 NE14      30.09S
HELENA         CLOUDY    45  34  65 N12       30.04S
CHOTEAU          N/A     39  36  87 NE8       30.11F
$$

MTZ011-013-016-021-045-047-050-051-282200-
NORTH CENTRAL MONTANA

CITY           SKY/WX    TMP DP  RH WIND       PRES   REMARKS
HAVRE          CLOUDY    54  35  48 E15       30.11F
LEWISTOWN      CLOUDY    42  32  67 E16       30.09S
N BAR RANCH    CLOUDY    34  30  86 NE6       30.12S WCI  29
CHINOOK          N/A     54  30  40 E10G17    30.12S
$$

MTZ017>020-022>027-061-062-282200-
NORTHEAST MONTANA

CITY           SKY/WX    TMP DP  RH WIND       PRES   REMARKS
GLASGOW        SUNNY     54  26  34 E17       30.12S
JORDAN           N/A     49  30  48 NE12      30.10F
SIDNEY         PTSUNNY   54  28  37 E16       30.13S
WOLF POINT     CLOUDY    57  28  33 E13       30.13S
POPLAR           N/A     55  25  30 E13G23    30.13S
SCOBEY           N/A     58  20  23 E10       30.12S
$$

MTZ028>42-056>058-282200-
SOUTHCENTRAL AND SOUTHEAST MONTANA

CITY           SKY/WX    TMP DP  RH WIND       PRES   REMARKS
BAKER          CLOUDY    41  33  73 E15       30.12R
BILLINGS       CLOUDY    37  34  89 E8        30.09F WCI  31
LIVINGSTON     CLOUDY    42  28  57 E21G29    30.01S
MILES CITY     CLOUDY    44  34  67 E7        30.10S
EKALAKA          N/A     38  34  85 E7        30.06S
FORSYTH          N/A     43  36  75 NE8       30.11R
LAUREL           N/A     38  31  76 N8        30.06F
ROUNDUP          N/A     37  34  89 CALM      30.01S
$$

REGIONAL REPORTS...DAKOTAS

CITY           SKY/WX    TMP DP  RH WIND       PRES   REMARKS
WILLISTON      PTSUNNY   56  23  27 E10       30.14R
MINOT          CLOUDY    60  12  15 E15       30.13S
DICKINSON      CLOUDY    51  29  42 NE10      30.08S
BEACH          CLOUDY    48  32  53 SE14G23   30.13S
CROSBY           N/A     57  12  17 NE16G22   30.17S
TIOGA          PTSUNNY   55  14  19 NE18G25   30.18S
WATFORD CITY     N/A     54  21  28 E14       30.13S
BISMARCK       CLOUDY    55  21  26 E14G23    30.09S
GRAND FORKS    CLOUDY    57  25  29 NE17      30.11S
FARGO          CLOUDY    59  19  21 NE12G21   30.05S
BUFFALO SD       N/A     37  34  89 E6        30.04R
RAPID CITY     CLOUDY    41  34  76 N12       30.05S
$$

REGIONAL REPORTS...WYOMING/IDAHO/WASHINGTON

CITY           SKY/WX    TMP DP  RH WIND       PRES   REMARKS
GILLETTE       CLOUDY    38  31  76 NE8       30.03S
SHERIDAN       CLOUDY    38  32  79 W6        30.06S
BUFFALO WY     CLOUDY    36  28  73 N5        30.04S
CODY           CLOUDY    37  27  65 N8        30.01R WCI  31
YELLOWSTONE LA   N/A     37  21  52 VRB5      29.90R
IDAHO FALLS    PTSUNNY   58  24  27 NE3       29.79F
SALMON         PTSUNNY   50  28  43 N3        29.90S
BOISE          PTSUNNY   68  35  29 NW21G35   29.79F
SPOKANE        PTSUNNY   62  32  32 N7        29.95F
$$

REGIONAL REPORTS...ALBERTA

CITY           SKY/WX    TMP DP  RH WIND       PRES   REMARKS
EDMONTON       MOSUNNY   57  30  35 S21G30    30.09F
CALGARY        CLOUDY    50  30  46 S22G30    30.10S
LETHBRIDGE     PTSUNNY   50  34  53 E9        30.13F
MEDICINE HAT   CLOUDY    57  34  41 E7        30.13F
WATERTON GATE    N/A     43  28  56 SE16G23     N/A
MILK RIVER       N/A     48  36  61 E13         N/A
$$

REGIONAL REPORTS...SASKATCHEWAN

CITY           SKY/WX    TMP DP  RH WIND       PRES   REMARKS
SWIFT CURRENT  MOSUNNY   55  23  28 E14G20    30.15
REGINA         PTSUNNY   59  18  20 E16G22    30.18F
SASKATOON      PTSUNNY   61  19  20 SE9G22    30.22F
CYPRESS HILLS    N/A     43  25  49 E10         N/A
VAL MARIE        N/A     54  28  37 E9G18       N/A
ROCKGLEN         N/A     55  21  26 E7          N/A
ASSINIBOIA       N/A     59  28  31 S16G23      N/A
$$




USA.gov is the U.S. government's official web portal to all federal, state and local government web resources and services.